Wind_Speed
26 26 26 27 28 28 26 24 22 23 23 24 24 24 23 23 23 22 21 20 19 19 18 17 17 16 15 14 14 15 14 14 14 13 13 13 12 12 11 11 10 10 9 9 8 8 7 7 6
28 28 28 29 29 29 26 24 24 24 26 26 26 26 25 24 24 23 22 21 21 20 20 19 18 17 16 16 16 16 15 15 14 14 14 14 13 13 13 12 11 11 10 10 9 9 8 8 7
30 30 31 31 31 29 27 26 25 26 27 27 28 27 27 26 25 24 23 23 22 22 21 21 20 19 18 17 17 17 17 16 15 15 15 15 14 14 14 14 13 12 12 11 11 10 10 9 9
31 32 33 33 32 30 29 28 27 28 28 29 29 29 28 27 26 25 25 24 24 23 23 22 21 21 20 19 19 18 18 17 17 16 16 15 15 15 15 15 14 13 13 12 12 12 11 11 10
34 34 35 35 32 31 31 30 30 30 30 30 31 31 29 28 28 27 27 26 25 25 25 24 23 23 22 22 21 20 19 19 18 17 17 16 15 15 16 16 15 15 15 14 14 13 13 12 11
36 36 37 36 33 33 33 33 32 32 32 32 32 32 31 30 30 29 29 28 27 27 26 26 25 25 24 23 23 22 21 21 20 19 18 18 17 17 16 17 17 17 16 16 15 15 14 14 13
37 38 38 36 36 35 35 35 34 34 34 34 34 33 32 32 31 31 31 30 29 28 28 27 27 27 26 26 25 24 23 23 22 22 21 20 19 18 18 17 18 18 18 17 17 16 16 15 15
39 40 40 38 37 36 37 37 37 37 36 36 36 35 34 33 33 33 32 32 31 31 30 29 29 29 28 28 27 26 25 25 24 23 22 22 21 20 20 19 19 18 18 18 18 17 17 16 16
40 42 41 40 39 38 39 39 39 39 38 38 38 37 36 35 35 35 34 34 33 33 32 31 31 31 30 29 29 28 27 27 26 25 24 24 23 22 22 21 20 20 19 19 19 19 18 18 18
43 44 42 41 42 41 41 41 41 41 41 40 40 39 38 38 38 37 36 35 35 34 33 33 33 32 32 31 30 30 29 29 28 27 26 26 25 24 24 23 22 22 21 21 21 21 21 20 20
44 44 43 43 44 44 44 43 43 43 42 42 41 41 40 40 39 39 38 37 37 36 35 35 34 33 33 32 32 31 31 31 30 29 28 27 26 26 25 25 24 23 23 22 22 21 21 21 21
45 44 44 44 45 45 45 45 44 44 43 43 43 43 42 41 41 40 40 39 39 38 37 37 36 35 34 34 33 33 32 32 32 31 30 29 28 27 27 26 25 25 24 23 23 22 22 22 22
44 44 44 45 46 46 46 46 46 45 44 44 44 44 43 43 43 42 41 41 40 40 39 38 37 37 36 36 35 34 34 33 33 32 32 30 29 29 28 27 26 26 26 25 24 24 24 23 23
42 43 43 44 45 46 46 46 47 45 45 45 44 44 44 44 44 44 43 42 42 41 41 40 39 38 38 37 36 35 35 34 33 33 33 32 31 31 30 29 28 28 27 27 26 26 25 25 25
41 42 43 43 44 45 46 47 47 46 46 46 45 45 44 44 45 45 44 44 43 43 42 41 41 40 40 39 38 37 36 36 36 34 34 33 32 32 32 31 30 30 29 28 28 28 28 27 26
38 40 41 42 43 43 46 47 46 46 46 47 47 46 45 45 45 45 45 45 44 44 44 43 42 42 41 41 40 39 38 38 37 36 35 35 34 33 33 32 32 31 30 30 30 30 29 29 28
38 39 39 40 41 43 45 46 45 46 47 46 47 46 45 46 46 45 45 45 45 45 45 44 44 44 43 42 41 41 40 40 39 38 37 36 35 35 34 34 33 32 32 32 31 31 31 31 30
36 37 38 38 39 41 43 43 44 45 46 46 46 47 46 46 47 46 46 46 46 46 46 46 45 45 45 44 44 43 42 42 41 40 39 39 37 37 35 35 34 33 33 33 32 32 32 32 32
35 36 37 37 38 39 41 42 42 44 44 45 46 47 47 46 46 47 47 47 47 47 47 46 46 46 46 46 45 45 44 43 43 42 41 41 40 39 38 37 36 35 34 34 33 33 33 33 33
34 34 34 36 37 39 41 42 42 43 43 44 45 46 47 47 47 47 48 48 48 49 48 48 47 47 47 47 46 46 46 45 44 44 43 42 42 41 40 39 38 37 36 36 36 35 34 34 34
32 33 32 33 34 37 39 40 41 41 42 43 44 45 46 47 47 47 48 48 49 49 49 49 48 48 48 47 47 47 47 46 46 45 45 44 43 43 42 41 41 40 38 37 37 37 36 35 35
29 30 30 31 32 34 37 39 40 40 40 42 43 44 45 46 46 47 48 49 49 49 49 49 49 49 49 49 48 48 47 46 46 46 46 45 45 44 44 43 42 42 40 39 39 39 38 37 36
25 26 27 28 30 33 34 36 38 39 40 40 42 43 44 45 45 46 47 47 48 49 49 50 49 49 49 49 49 49 48 48 47 47 47 47 46 45 45 44 43 43 42 41 40 40 40 39 38
22 24 25 25 27 30 32 34 35 37 38 39 41 42 43 43 44 45 46 46 47 48 49 49 49 49 49 49 49 49 49 49 48 48 48 48 47 46 45 45 44 44 44 43 41 42 41 41 40
21 21 23 24 25 26 28 31 34 35 36 37 39 40 41 42 42 43 45 46 46 47 48 48 48 48 49 49 49 49 49 49 49 49 48 48 48 47 47 46 46 45 45 44 43 42 43 42 42
20 20 22 24 25 25 26 28 30 32 34 36 37 38 40 40 41 42 43 45 46 47 47 47 47 48 48 49 49 49 49 49 49 49 49 49 48 48 48 48 47 46 45 45 44 43 44 44 43
19 20 20 22 25 26 26 28 29 30 32 35 36 37 39 40 41 42 43 44 45 46 47 47 47 47 48 48 50 50 50 50 49 50 50 50 49 48 48 47 47 47 46 45 45 45 44 44 43
18 20 20 21 22 24 26 28 29 29 31 33 35 37 38 39 40 42 43 44 45 46 46 46 47 48 48 48 49 50 51 51 50 50 50 50 50 49 49 49 48 47 47 46 46 46 46 45 45
16 19 21 21 22 23 23 25 27 27 28 30 33 36 38 39 40 41 41 43 44 45 46 46 47 48 48 48 48 50 51 51 51 51 51 51 51 50 50 50 49 49 48 48 47 47 46 46 46
17 18 18 20 21 23 25 25 26 27 27 29 31 33 36 37 39 40 41 42 43 45 46 46 46 47 48 48 48 49 49 50 51 51 51 51 51 51 51 50 50 50 49 50 49 49 48 47 47
Wind_Direction
249 247 246 246 245 244 244 242 239 236 236 236 236 235 234 234 233 235 234 234 234 232 231 230 229 229 227 226 225 224 224 224 225 224 224 225 225 224 223 221 220 220 220 222 224 226 228 229 231
250 249 247 246 245 245 244 242 240 237 236 236 237 236 235 234 234 235 235 235 234 234 233 233 231 230 229 227 226 225 225 225 225 226 226 226 226 226 225 225 224 225 226 228 230 230 230 231 235
250 249 248 246 246 246 246 244 241 239 238 238 238 237 236 235 234 234 234 234 235 235 234 234 233 232 230 229 228 227 226 226 226 226 227 227 227 227 227 227 226 227 230 232 233 233 234 236 240
250 249 248 248 247 247 247 245 242 240 238 238 238 238 237 236 234 234 234 234 235 235 235 235 234 233 231 230 230 229 228 227 226 227 227 228 228 229 230 229 228 228 230 234 236 236 238 240 242
250 249 248 249 248 246 245 245 243 241 239 237 237 238 237 235 234 233 234 234 234 235 235 234 234 233 232 231 232 231 230 229 227 228 228 230 230 231 232 232 231 232 233 236 238 239 241 242 244
251 250 249 249 249 247 245 244 243 241 239 238 237 237 236 236 235 234 234 235 235 235 235 235 234 233 232 233 233 234 234 232 230 230 232 232 232 233 235 235 235 235 237 239 241 241 242 244 247
252 251 250 249 248 246 245 244 243 241 240 238 238 237 237 236 235 235 235 235 235 235 235 234 234 234 234 234 234 234 234 234 233 234 234 235 236 237 238 238 238 238 239 241 242 243 244 246 247
253 252 251 249 248 246 245 243 242 241 240 239 238 238 237 236 236 235 235 235 234 234 235 235 235 235 235 236 235 234 235 235 235 235 236 237 238 238 239 239 240 240 240 242 243 244 245 246 248
253 252 251 251 249 247 245 244 242 241 240 239 238 239 237 236 236 236 235 235 235 235 235 236 236 236 236 237 237 236 236 236 236 236 237 238 238 239 240 240 240 241 242 244 246 247 247 248 249
253 252 252 251 249 247 245 244 242 240 239 238 238 238 237 236 236 236 235 235 236 236 236 237 237 237 237 237 237 236 236 236 236 236 238 239 240 242 242 242 242 243 244 246 248 249 250 251 251
254 253 252 250 248 246 245 244 242 241 239 238 238 238 237 236 235 236 236 235 235 236 236 237 237 237 237 236 236 236 236 237 236 237 238 239 240 241 242 243 244 245 246 248 249 250 251 252 254
255 253 251 250 248 246 245 243 242 241 240 238 237 237 236 236 235 235 235 235 235 235 236 236 236 236 236 236 237 236 236 236 236 236 237 238 240 242 243 244 246 246 248 249 251 252 253 254 255
255 253 251 249 248 247 244 242 241 240 240 238 237 236 236 236 235 235 235 235 235 235 235 235 235 235 236 236 237 237 236 235 236 236 236 238 240 242 244 245 246 247 249 250 251 253 254 255 255
255 253 251 249 248 246 244 242 240 239 239 238 237 236 236 236 235 235 235 235 235 235 235 235 235 235 236 236 237 237 236 236 236 236 236 238 240 243 245 246 247 248 249 251 251 253 254 255 256
255 253 250 248 247 246 244 241 240 238 238 237 236 236 235 236 235 235 235 235 235 235 236 235 234 235 236 236 237 237 237 236 236 236 238 239 241 243 244 247 248 249 249 251 252 253 254 255 257
255 253 251 247 247 245 244 242 240 239 238 237 236 235 235 235 235 235 234 234 235 235 236 236 235 235 236 237 238 238 238 237 237 238 240 241 242 243 244 246 248 249 250 251 252 253 255 255 258
252 252 251 248 246 244 244 243 240 239 238 237 236 235 235 235 235 235 234 234 235 235 236 236 236 236 236 237 238 239 239 237 237 239 241 242 243 243 244 246 248 249 250 251 252 253 254 256 258
252 252 251 249 246 244 243 243 240 238 238 236 236 234 234 235 235 234 234 235 235 235 236 236 236 236 237 238 238 238 239 238 239 240 241 243 244 244 245 246 246 248 250 252 252 254 255 256 258
253 252 250 248 246 244 243 242 240 238 237 236 235 235 234 235 235 235 235 235 235 235 235 236 236 236 237 237 238 239 239 239 239 240 241 243 244 245 245 246 247 248 250 252 254 255 256 257 258
253 251 249 248 247 246 244 243 241 239 237 236 236 236 235 235 235 235 235 236 236 235 236 236 237 237 237 237 238 239 239 239 239 240 241 243 244 246 246 247 248 249 251 253 254 254 256 257 258
253 250 250 249 249 247 245 243 241 239 238 237 236 236 236 236 236 236 235 235 235 235 236 236 237 238 238 238 238 239 240 239 240 241 242 243 244 246 246 247 249 250 251 253 255 254 256 257 258
254 251 251 248 248 247 244 243 239 238 236 236 236 236 236 235 236 236 236 235 235 235 236 236 237 238 238 238 239 240 241 241 241 242 243 243 244 245 246 247 248 250 251 254 255 254 255 256 257
253 251 251 250 247 247 244 243 240 238 235 236 236 236 235 235 235 235 235 235 235 235 236 236 236 237 238 238 238 239 240 241 242 242 243 243 244 245 246 247 248 250 251 253 253 254 254 256 257
256 250 249 248 246 245 242 243 242 238 237 237 236 235 235 235 235 235 234 234 235 235 236 236 236 237 238 238 238 239 240 241 242 242 243 244 244 245 246 247 248 250 251 252 252 253 254 255 257
258 250 247 246 246 248 242 241 241 239 238 238 237 236 236 235 235 236 234 234 235 235 235 236 237 237 238 239 239 239 240 241 242 242 243 244 244 245 246 247 248 249 250 251 253 253 254 255 256
257 248 245 245 248 249 245 242 240 239 239 239 238 237 236 235 236 236 236 235 235 235 236 237 238 238 239 240 240 240 241 241 242 243 243 244 245 246 246 247 247 248 249 251 252 253 254 255 257
256 247 246 250 251 251 248 245 241 239 239 240 239 239 237 237 237 237 237 237 236 236 236 238 238 239 240 241 241 241 242 242 242 243 244 245 246 246 247 247 248 248 249 251 252 254 255 256 257
260 254 250 250 251 252 249 248 245 242 240 240 241 240 240 238 239 238 238 238 238 237 238 239 240 240 240 242 242 242 243 243 243 244 244 245 246 246 246 247 248 249 250 251 252 253 254 255 256
264 257 254 255 254 252 252 252 248 246 245 243 242 241 241 241 240 240 240 239 239 239 238 240 240 241 241 242 242 242 243 243 244 244 244 245 245 246 246 247 249 250 251 251 252 253 255 256 257
267 259 259 259 261 258 255 254 251 250 246 244 243 243 243 243 242 242 242 241 240 240 240 240 241 241 241 242 242 242 243 243 244 244 244 245 246 246 246 248 248 249 251 251 252 253 254 256 257
Height
5815 5816 5817 5819 5820 5820 5822 5825 5827 5829 5830 5831 5832 5834 5836 5838 5840 5844 5843 5844 5845 5846 5847 5848 5850 5851 5852 5853 5854 5856 5857 5858 5859 5860 5861 5862 5863 5864 5865 5866 5866 5867 5868 5868 5869 5870 5870 5870 5871
5810 5811 5812 5813 5813 5815 5818 5820 5822 5824 5825 5826 5827 5829 5831 5833 5835 5837 5838 5840 5841 5843 5844 5845 5847 5848 5849 5851 5852 5853 5854 5856 5857 5858 5859 5860 5861 5862 5863 5864 5864 5865 5866 5867 5867 5868 5868 5869 5870
5804 5805 5806 5806 5807 5810 5814 5815 5817 5818 5819 5821 5822 5824 5826 5828 5830 5832 5834 5835 5837 5839 5840 5842 5843 5845 5846 5848 5849 5851 5852 5853 5854 5855 5857 5858 5859 5860 5861 5862 5862 5863 5864 5865 5866 5866 5867 5867 5868
5797 5798 5799 5800 5802 5806 5808 5809 5811 5812 5813 5815 5817 5818 5821 5824 5826 5827 5829 5831 5833 5834 5836 5838 5840 5841 5843 5845 5846 5848 5849 5850 5852 5853 5854 5855 5856 5857 5858 5859 5860 5861 5862 5863 5864 5864 5865 5866 5866
5789 5789 5791 5792 5796 5799 5801 5802 5804 5805 5807 5809 5811 5813 5815 5818 5820 5822 5824 5826 5828 5830 5832 5834 5835 5837 5839 5841 5843 5844 5846 5847 5849 5850 5851 5852 5853 5855 5856 5857 5858 5859 5860 5861 5861 5862 5863 5863 5864
5780 5781 5783 5785 5789 5792 5793 5794 5796 5798 5800 5802 5804 5806 5809 5812 5814 5816 5818 5821 5823 5825 5827 5829 5831 5833 5835 5837 5839 5841 5842 5844 5845 5847 5848 5850 5851 5852 5853 5854 5855 5856 5857 5858 5859 5860 5860 5861 5862
5772 5772 5774 5778 5780 5783 5785 5786 5788 5791 5793 5795 5797 5800 5802 5805 5808 5810 5813 5815 5817 5820 5822 5824 5826 5828 5830 5832 5834 5837 5838 5840 5842 5843 5845 5846 5848 5849 5850 5851 5852 5853 5854 5855 5856 5857 5858 5858 5859
5762 5763 5765 5768 5771 5774 5776 5777 5780 5782 5785 5787 5790 5793 5796 5799 5801 5804 5806 5809 5811 5814 5816 5818 5821 5823 5825 5827 5830 5832 5834 5836 5838 5839 5841 5843 5844 5845 5847 5848 5849 5850 5851 5852 5853 5854 5854 5855 5856
5751 5752 5755 5760 5762 5765 5766 5768 5770 5773 5776 5779 5782 5785 5788 5791 5794 5797 5799 5802 5805 5808 5810 5813 5815 5817 5819 5822 5824 5826 5829 5831 5833 5835 5837 5838 5840 5841 5843 5844 5845 5847 5848 5849 5849 5850 5851 5852 5853
5739 5740 5746 5750 5751 5753 5755 5757 5760 5763 5766 5770 5773 5777 5780 5783 5786 5789 5792 5795 5798 5801 5804 5806 5809 5811 5813 5816 5818 5821 5823 5825 5828 5830 5832 5834 5835 5837 5838 5840 5841 5843 5844 5845 5846 5847 5847 5848 5849
5727 5730 5735 5736 5738 5741 5744 5746 5749 5752 5756 5761 5764 5768 5771 5774 5778 5781 5784 5788 5791 5794 5797 5799 5802 5805 5807 5810 5812 5814 5817 5819 5822 5824 5826 5828 5830 5832 5834 5835 5837 5838 5839 5841 5841 5842 5843 5844 5845
5715 5718 5720 5723 5725 5728 5731 5735 5738 5742 5747 5750 5753 5757 5761 5765 5769 5772 5776 5779 5783 5786 5789 5792 5795 5798 5800 5803 5805 5808 5811 5813 5816 5818 5821 5823 5825 5827 5829 5830 5832 5833 5835 5836 5837 5838 5839 5840 5841
5702 5705 5707 5709 5711 5714 5718 5722 5726 5731 5735 5739 5743 5746 5751 5755 5759 5763 5767 5771 5774 5778 5781 5784 5787 5791 5793 5796 5799 5801 5804 5807 5809 5812 5815 5817 5820 5822 5823 5825 5827 5828 5830 5831 5832 5833 5834 5835 5836
5689 5691 5693 5696 5698 5701 5705 5709 5713 5719 5723 5727 5732 5736 5740 5745 5750 5754 5758 5762 5765 5769 5773 5776 5780 5783 5786 5789 5792 5794 5797 5800 5803 5806 5808 5811 5813 5816 5818 5819 5821 5823 5824 5826 5827 5828 5829 5830 5831
5676 5678 5680 5683 5685 5689 5692 5696 5701 5707 5711 5716 5721 5726 5730 5734 5739 5744 5748 5752 5756 5760 5764 5768 5771 5775 5778 5781 5784 5787 5790 5793 5796 5799 5802 5804 5807 5809 5811 5813 5815 5817 5818 5820 5821 5822 5823 5824 5825
5663 5664 5667 5671 5673 5676 5680 5684 5690 5694 5699 5704 5710 5715 5720 5724 5729 5734 5738 5743 5747 5751 5755 5759 5763 5766 5770 5773 5776 5779 5783 5786 5789 5792 5795 5798 5800 5803 5805 5807 5809 5810 5812 5814 5815 5816 5817 5818 5819
5650 5652 5655 5659 5661 5664 5667 5672 5678 5682 5687 5693 5698 5704 5709 5714 5718 5723 5728 5732 5737 5741 5745 5749 5753 5757 5761 5765 5768 5771 5775 5778 5781 5785 5788 5790 5793 5795 5798 5800 5802 5804 5805 5807 5808 5810 5811 5812 5813
5640 5643 5645 5647 5650 5653 5656 5661 5666 5671 5676 5681 5687 5692 5698 5703 5708 5713 5717 5722 5727 5731 5735 5740 5744 5748 5752 5755 5759 5763 5766 5770 5773 5777 5780 5782 5785 5788 5790 5793 5795 5797 5798 5800 5801 5803 5804 5805 5806
5631 5633 5634 5637 5639 5642 5646 5650 5655 5659 5664 5670 5675 5681 5686 5692 5697 5702 5707 5711 5716 5721 5725 5730 5734 5738 5742 5746 5750 5754 5758 5761 5765 5768 5771 5774 5777 5780 5782 5785 5787 5789 5791 5793 5794 5795 5797 5798 5799
5620 5622 5624 5626 5628 5631 5635 5639 5643 5648 5653 5658 5664 5669 5675 5681 5686 5691 5696 5700 5705 5710 5715 5719 5724 5728 5732 5737 5740 5744 5748 5752 5755 5759 5762 5765 5768 5771 5774 5777 5779 5781 5783 5785 5787 5788 5789 5790 5791
5611 5613 5615 5617 5619 5621 5624 5628 5632 5638 5642 5647 5653 5658 5664 5670 5675 5680 5684 5689 5694 5699 5704 5709 5713 5718 5722 5726 5730 5734 5738 5741 5745 5749 5753 5756 5759 5762 5765 5768 5770 5772 5775 5776 5778 5780 5781 5782 5783
5602 5605 5607 5608 5609 5611 5615 5617 5622 5627 5632 5637 5642 5647 5653 5658 5663 5668 5673 5678 5683 5688 5693 5698 5703 5707 5711 5715 5720 5724 5728 5732 5736 5739 5742 5746 5749 5752 5755 5758 5761 5763 5765 5767 5769 5771 5772 5774 5775
5595 5597 5599 5600 5601 5603 5605 5608 5613 5616 5621 5627 5632 5637 5642 5647 5652 5657 5662 5667 5672 5677 5682 5687 5691 5696 5700 5705 5709 5713 5717 5721 5725 5728 5732 5735 5739 5742 5745 5748 5751 5753 5756 5758 5760 5761 5763 5765 5766
5588 5589 5591 5592 5592 5594 5597 5600 5603 5607 5612 5617 5622 5627 5632 5636 5641 5646 5651 5656 5661 5666 5670 5675 5680 5685 5689 5694 5698 5702 5706 5710 5714 5717 5721 5725 5728 5731 5735 5738 5740 5743 5746 5748 5750 5752 5753 5755 5757
5581 5583 5583 5583 5584 5586 5589 5591 5595 5599 5604 5608 5613 5617 5622 5626 5631 5636 5641 5645 5650 5655 5660 5664 5669 5673 5678 5682 5686 5691 5695 5699 5703 5707 5710 5714 5718 5721 5724 5727 5730 5732 5735 5738 5739 5742 5744 5745 5746
5576 5577 5578 5578 5579 5581 5582 5583 5588 5592 5596 5599 5603 5608 5612 5617 5621 5626 5630 5634 5639 5644 5649 5653 5658 5662 5666 5671 5675 5679 5683 5687 5691 5695 5699 5703 5707 5710 5713 5716 5719 5722 5724 5727 5729 5731 5733 5735 5736
5570 5570 5572 5573 5573 5574 5575 5577 5581 5584 5588 5591 5594 5598 5603 5607 5611 5615 5619 5624 5628 5633 5638 5642 5647 5651 5655 5659 5663 5667 5671 5676 5680 5683 5687 5691 5695 5698 5701 5704 5708 5710 5713 5716 5718 5720 5722 5724 5726
5565 5566 5566 5566 5567 5567 5569 5571 5574 5577 5580 5583 5586 5589 5593 5597 5601 5605 5609 5613 5617 5622 5626 5630 5635 5639 5644 5648 5651 5656 5659 5664 5667 5671 5675 5679 5683 5686 5690 5693 5696 5699 5702 5704 5707 5709 5711 5713 5714
5560 5561 5560 5561 5562 5563 5563 5567 5567 5570 5573 5575 5578 5580 5583 5587 5591 5595 5598 5602 5606 5610 5615 5619 5623 5627 5632 5636 5640 5643 5647 5651 5655 5659 5663 5667 5670 5674 5678 5681 5684 5688 5690 5693 5695 5697 5699 5701 5703
5555 5555 5556 5557 5557 5557 5557 5562 5560 5563 5564 5566 5569 5571 5574 5577 5581 5584 5588 5591 5595 5599 5603 5607 5611 5615 5619 5624 5627 5631 5635 5638 5643 5647 5650 5654 5658 5662 5665 5669 5672 5675 5678 5681 5683 5685 5687 5689 5691